{"data":{"norad_id":51117,"intl_designator":"2022-005P","name":"STARLINK-3391","alt_names":[],"object_type":"PAYLOAD","status":"ACTIVE","operator":null,"country":"US","launch_date":"2022-01-19","launch_site_code":"AFETR","launch_vehicle":null,"mission":null,"orbit_class":"UNKNOWN","rcs_meters":null,"size_class":null,"mass_kg":null,"dimensions":null,"purposes":["comms"],"wikipedia_slug":null,"has_3d_model":false,"image_url":null,"decayed_at":null,"tle_current":{"epoch":"2026-05-25T03:53:30.006240Z","epoch_age_seconds":67797,"freshness":"FRESH","line1":"1 51117U 22005P   26145.16215285  .00000819  00000+0  69505-4 0  9998","line2":"2 51117  53.2127 305.7118 0001243  87.3289 272.7846 15.08841730240424","mean_motion":15.0884173,"eccentricity":0.0001243,"inclination_deg":53.2127,"raan_deg":305.7118,"arg_perigee_deg":87.3289,"mean_anomaly_deg":272.7846,"bstar":6.9505e-5,"rev_number":24042,"period_min":95.437445251465,"perigee_km":538.87820917619,"apogee_km":540.59799292631,"semimajor_km":6917.8751010513,"source":"CELESTRAK","updated_at":"2026-05-25T13:38:16.909295Z"}}}